TimeCST,TemperatureF,Dew PointF,Humidity,Sea Level PressureIn,VisibilityMPH,Wind Direction,Wind SpeedMPH,Gust SpeedMPH,PrecipitationIn,Events,Conditions,WindDirDegrees,DateUTC
12:52 AM,1.9,-4.0,76,30.50,10.0,NNW,5.8,-,N/A,,Clear,330,2013-02-20 06:52:00
1:52 AM,3.0,-5.1,69,30.47,10.0,North,5.8,-,N/A,,Clear,10,2013-02-20 07:52:00
2:52 AM,1.9,-6.0,69,30.48,10.0,NNE,3.5,-,N/A,,Clear,30,2013-02-20 08:52:00
3:52 AM,1.9,-6.0,69,30.48,10.0,NNE,3.5,-,N/A,,Clear,30,2013-02-20 09:52:00
4:52 AM,1.0,-6.0,72,30.46,10.0,NE,6.9,-,N/A,,Clear,40,2013-02-20 10:52:00
5:52 AM,-0.0,-7.1,72,30.46,10.0,ENE,5.8,-,N/A,,Clear,70,2013-02-20 11:52:00
6:52 AM,-0.0,-7.1,72,30.45,10.0,ENE,5.8,-,N/A,,Clear,60,2013-02-20 12:52:00
7:52 AM,-0.0,-7.1,72,30.48,10.0,East,5.8,-,N/A,,Clear,90,2013-02-20 13:52:00
8:52 AM,1.9,-5.1,72,30.49,10.0,East,8.1,-,N/A,,Clear,100,2013-02-20 14:52:00
9:52 AM,7.0,-2.9,64,30.46,10.0,East,8.1,-,N/A,,Clear,90,2013-02-20 15:52:00
10:52 AM,10.4,-0.4,62,30.39,10.0,SE,9.2,-,N/A,,Overcast,130,2013-02-20 16:52:00
11:52 AM,14.0,-0.0,54,30.48,10.0,SE,6.9,-,N/A,,Overcast,140,2013-02-20 17:52:00
12:52 PM,18.0,1.0,48,30.42,10.0,East,9.2,-,N/A,,Mostly Cloudy,90,2013-02-20 18:52:00
1:52 PM,21.9,1.0,40,30.38,10.0,SE,10.4,-,N/A,,Partly Cloudy,130,2013-02-20 19:52:00
2:52 PM,23.0,1.0,39,30.36,10.0,ESE,9.2,-,N/A,,Overcast,110,2013-02-20 20:52:00
3:52 PM,24.1,1.9,38,30.34,10.0,ESE,12.7,-,N/A,,Overcast,120,2013-02-20 21:52:00
4:52 PM,25.0,1.9,37,30.30,10.0,ESE,9.2,-,N/A,,Overcast,110,2013-02-20 22:52:00
5:52 PM,25.0,1.9,37,30.29,10.0,ESE,13.8,-,N/A,,Overcast,110,2013-02-20 23:52:00
6:52 PM,24.1,1.9,38,30.31,10.0,ESE,11.5,-,N/A,,Overcast,110,2013-02-21 00:52:00
7:52 PM,21.9,3.0,44,30.32,10.0,ESE,9.2,-,N/A,,Overcast,110,2013-02-21 01:52:00
8:52 PM,21.0,3.9,48,30.31,10.0,East,9.2,-,N/A,,Mostly Cloudy,100,2013-02-21 02:52:00
9:52 PM,19.9,5.0,52,30.32,10.0,East,9.2,-,N/A,,Overcast,100,2013-02-21 03:52:00
10:52 PM,19.9,6.1,55,30.32,10.0,East,9.2,-,N/A,,Overcast,100,2013-02-21 04:52:00
11:52 PM,21.0,7.0,55,30.33,10.0,ESE,10.4,-,N/A,,Overcast,110,2013-02-21 05:52:00